User: anonymous   Login
Location: Vancouver
(49.2500°N, 123.1330°W)
Time: 20:22:38
(UTC-08:00)
Language:

BREEZE-M DEB (TANK) - Orbit

View from above orbital plane
View from above orbital plane
View from above satellite
View from above satellite

Ground track
Ground track

The orbit data is extracted from the following two-line orbital elements,

1 27821U 03024B   15024.35901844  .00004513  00000-0  54712-3 0  5659
2 27821 049.5875 332.4910 4996973 089.2285 035.4242 05.65024474230454
Epoch (UTC): 24 January 2015 08:36:59
Eccentricity: 0.4996973
inclination: 49.5875°
perigee height: 283 km
apogee height: 13591 km
right ascension of ascending node: 332.4910°
argument of perigee: 89.2285°
revolutions per day: 5.65024474
mean anomaly at epoch: 35.4242°
orbit number at epoch: 23045

The dashed part of the orbit path shows where the satellite is in the earth's shadow,  

DLR